User: anonymous   Login
Location: Unspecified
(0.0000°N, 0.0000°E)
Time: 09:08:18
(UTC+00:00)
Language:

GONETS M04 - Orbit

View from above orbital plane
View from above orbital plane
View from above satellite
View from above satellite

Ground track
Ground track

The orbit data is extracted from the following two-line orbital elements,

1 38736U 12041D   17118.91899690 +.00000010 +00000-0 +00000-0 0  9995
2 38736 082.4846 354.8863 0021288 126.9176 233.3860 12.42888586215624
Epoch (UTC): 28 April 2017 22:03:21
Eccentricity: 0.0021288
inclination: 82.4846°
perigee height: 1477 km
apogee height: 1511 km
right ascension of ascending node: 354.8863°
argument of perigee: 126.9176°
revolutions per day: 12.42888586
mean anomaly at epoch: 233.3860°
orbit number at epoch: 21562

The dashed part of the orbit path shows where the satellite is in the earth's shadow,  

DLR